Regional Weather Roundup
Issued by NWS Sterling, VA

Home | Current Version | Previous Version | Graphics & Text | Print | Product List | Glossary On
Versions: 1 2 3 4 5 6 7 8 9 10 11 12 13 14 15 16 17 18 19 20 21 22 23 24 25 26 27
000
ASUS41 KLWX 221111
RWRLWX

REGIONAL WEATHER ROUNDUP
NATIONAL WEATHER SERVICE BALTIMORE MD/WASHINGTON DC
600 AM EST SUN JAN 22 2017

Note: "FAIR" indicates few or no clouds below 12,000 feet
with no significant weather and/or obstructions to visibility.
 TC=TEMPERATURE CELSIUS

 * =Non NWS site. Station does not report precipitation (e.g. rain,
    snow, etc.), thunder, or fog.

DCZ001-MDZ009-015-VAZ040>042-051-053>054-221200-
WASHINGTON METRO

CITY           SKY/WX    TMP DP  RH WIND       PRES   REMARKS
WASHINGTON NAT CLOUDY    47  46  97 N8        29.69F FOG
DULLES         FOG       47  45  93 N6        29.68F VSB 1/8
ANDREWS AFB    FOG       45  45 100 N8        29.66F VSB 3/4
FT BELVOIR     CLOUDY    47  46  97 CALM      29.67F FOG
QUANTICO       CLOUDY    47  47 100 NE6       29.68F VSB 1
COLLEGE PARK*  CLOUDY    45  43  93 CALM      29.68F VSB 3/4
LEESBURG*      CLOUDY    48  48 100 NE3       29.69F FOG
GAITHERSBURG*  CLOUDY    45  41  87 CALM      29.72F VSB 1

$$

MDZ006>007-011-014-221200-
BALTIMORE METRO

CITY           SKY/WX    TMP DP  RH WIND       PRES   REMARKS
BWI AIRPORT    FOG       45  45 100 N5        29.70S VSB 1/4
MD SCIENCE CTR   N/A     47  44  90 MISG      29.71R
MARTIN STATE   FOG       46  46 100 CALM      29.72  VSB 1/2
ANNAPOLIS      FOG       45  44  97 N7        29.69S VSB 3/4
FORT MEADE*    CLOUDY    45  43  93 CALM      29.70F VSB 1/2

$$

MDZ012-015-019>023-221200-
MARYLAND EASTERN SHORE

CITY           SKY/WX    TMP DP  RH WIND       PRES   REMARKS
OCEAN CITY     CLOUDY    47  47 100 N7        29.65F
SALISBURY      CLOUDY    47  47 100 NE12      29.65S
BAY BRIDGE AP* FOG       43  43 100 N5        29.69F VSB 3/4
CAMBRIDGE*     CLOUDY    46  46 100 NE6       29.65F
EASTON*        RAIN      48  46  93 NE5       29.72R

$$

MDZ017>025-221200-
SOUTHERN MARYLAND

CITY           SKY/WX    TMP DP  RH WIND       PRES   REMARKS
PATUXENT RIVER CLOUDY    47  47 100 NW6       29.65F FOG
ST INIGOES     CLOUDY    48  47  96 N5        29.64F
LEONARDTOWN*   CLOUDY    45  45 100 CALM      29.67F

$$

MDZ003>005-221200-
NORTH CENTRAL MARYLAND

CITY           SKY/WX    TMP DP  RH WIND       PRES   REMARKS
FREDERICK*     CLOUDY    45  45 100 NE3       29.70F FOG
HAGERSTOWN APT FOG       44  42  93 N6        29.68F VSB 1/2
WESTMINSTER*   FOG       43  43 100 NE3       29.69F VSB 1/2

$$

MDZ501>502-221200-
WESTERN MARYLAND

CITY           SKY/WX    TMP DP  RH WIND       PRES   REMARKS
OAKLAND*         N/A     46  41  81 NE3       29.64F
CUMBERLAND*    CLOUDY    45  45 100 CALM      29.70F

$$

VAZ025>031-221200-
SHENANDOAH VALLEY

CITY           SKY/WX    TMP DP  RH WIND       PRES   REMARKS
WINCHESTER*    CLOUDY    43  43 100 N3        29.67F FOG
FRONT ROYAL*   CLOUDY    45  45 100 NE3       29.66F VSB 1/2
LURAY*         CLOUDY    45  45 100 N5        29.65F FOG
NEW MARKET*    CLOUDY    45  43  95 CALM      29.64F
STAUNTON*      FOG       45  45 100 CALM      29.68R VSB 3/4
WAYNESBORO*    CLOUDY    45  44  96 CALM      29.64F VSB 1/4

$$

WVZ021-048>050-054>055-221200-
EASTERN WEST VIRGINIA PANHANDLE

CITY           SKY/WX    TMP DP  RH WIND       PRES   REMARKS
MARTINSBURG    CLOUDY    45  44  97 N5        29.68F FOG
PETERSBURG*    CLOUDY    46  46  98 CALM      29.67S FOG

$$

VAZ036>039-050-221200-
CENTRAL FOOTHILLS

CITY           SKY/WX    TMP DP  RH WIND       PRES   REMARKS
CHARLOTTESVILL CLOUDY    49  48  97 NE8       29.66S FOG
CULPEPER*      CLOUDY    49  49 100 N3        29.67F
ORANGE*        FOG       48  48 100 CALM      29.68F VSB 1
GORDONSVILLE*  CLOUDY    47  47 100 NE6       29.65F FOG
WARRENTON*     CLOUDY    49  46  90 N6        29.66F FOG

$$

VAZ055>057-221200-
NORTH AND CENTRAL PIEDMONT

CITY           SKY/WX    TMP DP  RH WIND       PRES   REMARKS
FREDERICKSBRG* CLOUDY    48  48 100 N3        29.65F FOG
STAFFORD*      CLOUDY    47  47 100 N5        29.70F FOG

$$

NCZ024-NYZ072-PAZ021-071-VAZ022-071-221200-
OTHER REGIONAL OBSERVATIONS

CITY           SKY/WX    TMP DP  RH WIND       PRES   REMARKS
NEW YORK CITY  CLOUDY    43  43 100 CALM      29.75R FOG
PHILADELPHIA   FOG       45  44  97 NE3       29.71F VSB 1/4
PITTSBURGH     MOCLDY    48  48 100 E5        29.61F FOG
ROANOKE        CLOUDY    50  50 100 CALM      29.68R FOG
RICHMOND       CLOUDY    48  48 100 NE9       29.63F
RALEIGH        CLOUDY    53  52  96 CALM      29.66R

$$

ANZ530>537-221200-
MARINE OBSERVATIONS

STATION/POSITION TIME  TEMP    WIND        PRES
                       AIR SEA DIR/SP/G
                 (UTC) (F)     (DEG/KT/KT) (MB)
THOMAS PT LIGHT  1100   42 40   10/ 11/ 12   N/A
BALT KEY BRIDGE  1048   45      10/  4/  5 1005.8R
COVE POINT       1048   42     360/ 11/ 11 1004.9F
LEWISETTA        1048   47 44  360/  4/  6 1003.6F
SOLOMONS ISLAND  1048   45 42  350/  8/ 10   N/A
PINEY POINT      1048           10/  1/  2   N/A

$$





USA.gov is the U.S. government's official web portal to all federal, state and local government web resources and services.